When you browse on this site, cookies collect data to enhance your experience and personalize the content and advertising you see.
Visit our Privacy Policy to learn more. By continuing to use the site, you agree to this use of cookies and data.
  • In United Kingdom
  • List of Countries
  • For 7 days
  • Water Temperature
  • Weather Map
  • Weather Widgets
  • user-avatar
    Login

    Hourly Weather Kernave

    Today, 24 September, Tuesday

    Time Temperature Precipitation Wind Pressure Humidity
    00:00 +4°C° 0 mm 1 mps 759 mmHg 75%
    01:00 +4°C° 0 mm 1 mps 759 mmHg 75%
    02:00 +4°C° 0 mm 1 mps 759 mmHg 75%
    03:00 +3°C° 0 mm 1 mps 758 mmHg 76%
    04:00 +3°C° 0 mm 1 mps 758 mmHg 77%
    05:00 +3°C° 0 mm 1 mps 758 mmHg 78%
    06:00 +4°C° 0 mm 1 mps 758 mmHg 75%
    07:00 +5°C° 0 mm 1 mps 758 mmHg 72%
    08:00 +5°C° 0 mm 1 mps 758 mmHg 70%
    09:00 +7°C° 0 mm 1 mps 758 mmHg 64%
    10:00 +9°C° 0 mm 1 mps 758 mmHg 59%
    11:00 +10°C° 0 mm 1 mps 757 mmHg 54%
    12:00 +11°C° 0 mm 1 mps 757 mmHg 51%
    13:00 +12°C° 0 mm 1 mps 757 mmHg 48%
    14:00 +13°C° 0 mm 1 mps 756 mmHg 45%
    15:00 +12°C° 0 mm 1 mps 756 mmHg 49%
    16:00 +12°C° 0 mm 1 mps 756 mmHg 53%
    17:00 +11°C° 0 mm 1 mps 756 mmHg 57%
    18:00 +10°C° 0 mm 1 mps 756 mmHg 61%
    19:00 +7°C° 0 mm 2 mps 756 mmHg 64%
    20:00 +5°C° 0 mm 2 mps 755 mmHg 68%
    21:00 +5°C° 0 mm 2 mps 755 mmHg 69%
    22:00 +5°C° 0 mm 2 mps 755 mmHg 69%
    23:00 +5°C° 0 mm 2 mps 755 mmHg 70%

    Tomorrow, 25 September, Wednesday

    Time Temperature Precipitation Wind Pressure Humidity
    00:00 +4°C° 0 mm 2 mps 755 mmHg 71%
    01:00 +4°C° 0 mm 2 mps 755 mmHg 72%
    02:00 +4°C° 0 mm 2 mps 755 mmHg 73%
    03:00 +4°C° 0 mm 2 mps 755 mmHg 74%
    04:00 +3°C° 0 mm 2 mps 755 mmHg 74%
    05:00 +2°C° 0 mm 3 mps 754 mmHg 75%
    06:00 +3°C° 0 mm 3 mps 754 mmHg 72%
    07:00 +4°C° 0 mm 3 mps 754 mmHg 69%
    08:00 +4°C° 0 mm 3 mps 754 mmHg 66%
    09:00 +7°C° 0 mm 3 mps 754 mmHg 63%
    10:00 +8°C° 0 mm 3 mps 754 mmHg 61%
    11:00 +9°C° 0 mm 3 mps 754 mmHg 59%
    12:00 +10°C° 0 mm 3 mps 754 mmHg 59%
    13:00 +11°C° 0 mm 3 mps 753 mmHg 60%
    14:00 +11°C° 0 mm 3 mps 753 mmHg 60%
    15:00 +11°C° 0 mm 3 mps 753 mmHg 63%
    16:00 +11°C° 0 mm 3 mps 753 mmHg 65%
    17:00 +10°C° 0 mm 4 mps 753 mmHg 67%
    18:00 +9°C° 0 mm 3 mps 753 mmHg 71%
    19:00 +8°C° 0 mm 3 mps 753 mmHg 74%
    20:00 +7°C° 0 mm 3 mps 753 mmHg 77%
    21:00 +7°C° 0 mm 3 mps 753 mmHg 78%
    22:00 +5°C° 0 mm 3 mps 753 mmHg 79%
    23:00 +5°C° 0 mm 3 mps 753 mmHg 80%

    Day after tomorrow, 26 September, Thursday

    Time Temperature Precipitation Wind Pressure Humidity
    00:00 +5°C° 0 mm 3 mps 753 mmHg 81%
    01:00 +5°C° 0 mm 3 mps 753 mmHg 82%
    02:00 +4°C° 0 mm 3 mps 753 mmHg 83%
    03:00 +4°C° 0 mm 3 mps 753 mmHg 84%
    04:00 +4°C° 0 mm 3 mps 753 mmHg 85%
    05:00 +4°C° 0 mm 3 mps 753 mmHg 86%
    06:00 +4°C° 0 mm 3 mps 753 mmHg 82%
    07:00 +5°C° 0 mm 3 mps 753 mmHg 78%
    08:00 +6°C° 0 mm 4 mps 753 mmHg 75%
    09:00 +8°C° 0 mm 3 mps 753 mmHg 70%
    10:00 +10°C° 0 mm 3 mps 754 mmHg 65%
    11:00 +12°C° 0 mm 3 mps 754 mmHg 61%
    12:00 +13°C° 0 mm 3 mps 754 mmHg 59%
    13:00 +14°C° 0 mm 3 mps 754 mmHg 58%
    14:00 +14°C° 0 mm 3 mps 753 mmHg 56%
    15:00 +14°C° 0 mm 3 mps 754 mmHg 60%
    16:00 +13°C° 0 mm 3 mps 754 mmHg 64%
    17:00 +14°C° 0 mm 2 mps 754 mmHg 67%
    18:00 +12°C° 0 mm 2 mps 754 mmHg 73%
    19:00 +10°C° 0 mm 3 mps 754 mmHg 79%
    20:00 +8°C° 0 mm 3 mps 754 mmHg 85%
    21:00 +7°C° 0 mm 3 mps 755 mmHg 86%
    22:00 +7°C° 0 mm 3 mps 755 mmHg 88%
    23:00 +5°C° 0 mm 3 mps 755 mmHg 89%

    27 September, Friday

    Time Temperature Precipitation Wind Pressure Humidity
    00:00 +6°C° 0 mm 2 mps 755 mmHg 91%
    01:00 +6°C° 0 mm 2 mps 755 mmHg 92%
    02:00 +5°C° 0 mm 2 mps 756 mmHg 93%
    03:00 +5°C° 0 mm 2 mps 756 mmHg 94%
    04:00 +5°C° 0 mm 2 mps 756 mmHg 94%
    05:00 +5°C° 0 mm 2 mps 756 mmHg 95%
    06:00 +6°C° 0 mm 2 mps 756 mmHg 92%
    07:00 +5°C° 0 mm 3 mps 755 mmHg 89%
    08:00 +7°C° 0 mm 3 mps 755 mmHg 86%
    09:00 +9°C° 0 mm 3 mps 755 mmHg 81%
    10:00 +11°C° 0 mm 3 mps 755 mmHg 75%
    11:00 +13°C° 0 mm 3 mps 756 mmHg 69%
    12:00 +14°C° 0 mm 3 mps 755 mmHg 68%
    13:00 +16°C° 0 mm 3 mps 755 mmHg 68%
    14:00 +17°C° 0 mm 3 mps 755 mmHg 67%
    15:00 +16°C° 0 mm 3 mps 754 mmHg 71%
    16:00 +16°C° 0 mm 2 mps 754 mmHg 75%
    17:00 +15°C° 0 mm 2 mps 754 mmHg 79%
    18:00 +15°C° 0 mm 2 mps 754 mmHg 82%
    19:00 +13°C° 0 mm 3 mps 754 mmHg 84%
    20:00 +12°C° 0 mm 3 mps 754 mmHg 87%
    21:00 +12°C° 0 mm 3 mps 754 mmHg 86%
    22:00 +12°C° 0 mm 3 mps 754 mmHg 86%
    23:00 +12°C° 0 mm 4 mps 754 mmHg 85%

    28 September, Saturday

    Time Temperature Precipitation Wind Pressure Humidity
    00:00 +12°C° 0 mm 4 mps 754 mmHg 84%
    01:00 +12°C° 0 mm 4 mps 753 mmHg 84%
    02:00 +10°C° 0 mm 5 mps 753 mmHg 83%
    03:00 +10°C° 0 mm 5 mps 752 mmHg 83%
    04:00 +10°C° 0 mm 5 mps 752 mmHg 82%
    05:00 +10°C° 0 mm 5 mps 751 mmHg 81%
    06:00 +10°C° 0.3 mm 5 mps 751 mmHg 84%
    07:00 +10°C° 0.3 mm 5 mps 750 mmHg 87%
    08:00 +10°C° 0.3 mm 5 mps 749 mmHg 90%
    09:00 +10°C° 1.2 mm 5 mps 749 mmHg 91%
    10:00 +10°C° 1.2 mm 5 mps 749 mmHg 93%
    11:00 +12°C° 1.2 mm 5 mps 749 mmHg 94%
    12:00 +12°C° 0.6 mm 4 mps 749 mmHg 94%
    13:00 +13°C° 0.6 mm 4 mps 749 mmHg 94%
    14:00 +13°C° 0.6 mm 3 mps 749 mmHg 93%
    15:00 +14°C° 0.1 mm 3 mps 749 mmHg 91%
    16:00 +14°C° 0.1 mm 3 mps 749 mmHg 89%
    17:00 +15°C° 0.1 mm 2 mps 749 mmHg 87%
    18:00 +14°C° 0 mm 2 mps 749 mmHg 90%
    19:00 +13°C° 0 mm 2 mps 749 mmHg 92%
    20:00 +12°C° 0 mm 2 mps 749 mmHg 94%
    21:00 +12°C° 0 mm 2 mps 749 mmHg 95%
    22:00 +12°C° 0 mm 2 mps 749 mmHg 95%
    23:00 +12°C° 0 mm 2 mps 749 mmHg 95%

    29 September, Sunday

    Time Temperature Precipitation Wind Pressure Humidity
    00:00 +10°C° 0.1 mm 2 mps 749 mmHg 95%
    01:00 +10°C° 0.1 mm 2 mps 748 mmHg 95%
    02:00 +10°C° 0.1 mm 3 mps 748 mmHg 96%
    03:00 +11°C° 0.1 mm 3 mps 748 mmHg 95%
    04:00 +11°C° 0.1 mm 3 mps 748 mmHg 95%
    05:00 +11°C° 0.1 mm 3 mps 748 mmHg 94%
    06:00 +11°C° 0.2 mm 3 mps 748 mmHg 94%
    07:00 +11°C° 0.2 mm 4 mps 748 mmHg 94%
    08:00 +11°C° 0.2 mm 4 mps 748 mmHg 94%
    09:00 +12°C° 0.2 mm 4 mps 748 mmHg 90%
    10:00 +13°C° 0.2 mm 5 mps 748 mmHg 87%
    11:00 +13°C° 0.2 mm 5 mps 748 mmHg 84%
    12:00 +13°C° 0.2 mm 5 mps 748 mmHg 82%
    13:00 +13°C° 0.2 mm 5 mps 748 mmHg 81%
    14:00 +13°C° 0.2 mm 6 mps 748 mmHg 80%
    15:00 +13°C° 0 mm 5 mps 748 mmHg 79%
    16:00 +13°C° 0 mm 4 mps 747 mmHg 79%
    17:00 +13°C° 0 mm 3 mps 747 mmHg 79%
    18:00 +12°C° 0 mm 3 mps 747 mmHg 83%
    19:00 +11°C° 0 mm 3 mps 747 mmHg 87%
    20:00 +11°C° 0 mm 3 mps 747 mmHg 91%
    21:00 +11°C° 0 mm 3 mps 747 mmHg 91%
    22:00 +10°C° 0 mm 3 mps 747 mmHg 91%
    23:00 +10°C° 0 mm 3 mps 747 mmHg 91%
    Show more